Orbital Elements at Epoch 2459200.5 (2020-Dec-17.0) TDB
Reference: JPL 20 (heliocentric ecliptic J2000)
Element | Value | Uncertainty (1-sigma) | Units |
e | .1255044117865327 | 7.8408e-08 | |
a | 2.314056675065534 | 8.3972e-09 | au |
q | 2.023632353220735 | 1.8251e-07 | au |
i | 6.969617235910251 | 8.0185e-06 | deg |
node | 312.4957834341699 | 4.0388e-05 | deg |
peri | 68.82882195125264 | 5.2182e-05 | deg |
M | 100.9682498955076 | 3.1181e-05 | deg |
tp | 2458839.886698715976 (2019-Dec-22.38669872) | 0.00011094 | TDB |
period | 1285.758529008879 3.52 | 6.9986e-06 1.916e-08 | d yr |
n | .279990365125172 | 1.524e-09 | deg/d |
Q | 2.604480996910334 | 9.4511e-09 | au |
|
| | Orbit Determination Parameters
Additional Information
|